Weather History for PHNY - April, 2013

Change the Weather History Date:

Saturday, April 6, 2013

  Actual Average Record
Temperature  
Mean Temperature 74 °F -  
Max Temperature 84 °F 77 °F 84 °F (2001)
Min Temperature 63 °F 60 °F 55 °F (1950)
Cooling Degree Days 8    
Growing Degree Days 24 (Base 50)    
Moisture  
Dew Point 66 °F    
Average Humidity 85    
Maximum Humidity 100    
Minimum Humidity 55    
Precipitation  
Precipitation 0.00 in - - ()
Sea Level Pressure  
Sea Level Pressure 30.14 in    
Wind  
Wind Speed 6 mph (ENE)    
Max Wind Speed 17 mph    
Max Gust Speed -    
Visibility 8 miles    
Events Fog    
Averages and records for this station are not official NWS values.
T = Trace of Precipitation, MM = Missing Value Source: NWS Daily Summary

Daily Weather History Graph

Daily Weather History Graph

Search for Another Location

Airport or City:

Trip Planner

Search our weather history database for the weather conditions in past years. The results will help you decide how hot, cold, wet, or windy it might be!

Date:

Astronomy

Apr. 06, 2013 Rise Set
Actual Time 6:16 AM HST 6:44 PM HST
Civil Twilight 5:53 AM HST 7:06 PM HST
Nautical Twilight 5:27 AM HST 7:32 PM HST
Astronomical Twilight 5:01 AM HST 7:59 PM HST
Moon 3:40 AM HST 3:46 PM HST
Length of Visible Light 13h 12m
Length of Day
12h 27m
Waning Crescent, 13% of the Moon is Illuminated
Apr 6
Waning Crescent
Apr 9
New
Apr 18
First Quarter
Apr 25
Full
May 2
Last Quarter

Hourly Weather History & Observations

Time (HST) Temp. Heat Index Dew Point Humidity Pressure Visibility Wind Dir Wind Speed Gust Speed Precip Events Conditions
12:05 AM 68.0 °F - 66.2 °F 94% 30.18 in 10.0 mi East 3.5 mph - N/A   Scattered Clouds
12:43 AM 69.8 °F - 64.4 °F 83% 30.17 in 10.0 mi Calm Calm - N/A   Mostly Cloudy
12:56 AM 68.0 °F - 64.9 °F 90% 30.10 in 10.0 mi Calm Calm - N/A   Mostly Cloudy
1:03 AM 68.0 °F - 64.4 °F 88% 30.16 in 10.0 mi SSW 3.5 mph - N/A   Mostly Cloudy
1:56 AM 66.2 °F - 64.4 °F 94% 30.15 in 10.0 mi WSW 4.6 mph - N/A   Partly Cloudy
2:56 AM 63.9 °F - 61.9 °F 93% 30.08 in 10.0 mi Calm Calm - N/A   Clear
3:56 AM 64.9 °F - 63.0 °F 93% 30.07 in 10.0 mi NNW 3.5 mph - N/A   Clear
4:56 AM 63.0 °F - 61.0 °F 93% 30.08 in 10.0 mi ENE 4.6 mph - N/A   Clear
5:56 AM 63.9 °F - 63.0 °F 97% 30.10 in 10.0 mi NE 3.5 mph - N/A   Clear
6:56 AM 66.9 °F - 63.9 °F 90% 30.12 in 10.0 mi NNW 5.8 mph - N/A   Clear
7:56 AM 72.9 °F - 64.9 °F 76% 30.13 in 10.0 mi WNW 8.1 mph - N/A   Clear
8:56 AM 74.8 °F - 63.9 °F 69% 30.15 in 10.0 mi Calm Calm - N/A   Clear
9:56 AM 77.0 °F - 63.9 °F 64% 30.14 in 10.0 mi SSE 11.5 mph - N/A   Clear
10:56 AM 78.8 °F - 64.4 °F 61% 30.19 in 10.0 mi SSE 9.2 mph - N/A   Partly Cloudy
11:56 AM 82.9 °F 85.0 °F 65.8 °F 56% 30.12 in 10.0 mi WNW 10.4 mph - N/A   Partly Cloudy
12:56 PM 83.8 °F 87.0 °F 68.0 °F 59% 30.10 in 10.0 mi NW 8.1 mph - N/A   Partly Cloudy
1:56 PM 84.2 °F 87.3 °F 68.0 °F 58% 30.14 in 10.0 mi Variable 5.8 mph - N/A   Scattered Clouds
2:04 PM 84.2 °F 86.6 °F 66.2 °F 55% 30.14 in 10.0 mi Variable 4.6 mph - N/A   Mostly Cloudy
2:56 PM 79.0 °F - 65.8 °F 64% 30.07 in 10.0 mi NNE 17.3 mph - N/A   Mostly Cloudy
3:06 PM 78.8 °F - 66.2 °F 65% 30.13 in 10.0 mi NE 16.1 mph - N/A   Mostly Cloudy
3:56 PM 79.9 °F - 66.9 °F 64% 30.06 in 10.0 mi NNE 17.3 mph - N/A   Clear
4:56 PM 77.9 °F - 66.9 °F 69% 30.06 in 10.0 mi NNE 12.7 mph - N/A   Clear
5:56 PM 73.9 °F - 68.0 °F 82% 30.08 in 10.0 mi NNE 15.0 mph - N/A   Clear
6:56 PM 70.9 °F - 66.9 °F 87% 30.10 in 10.0 mi NE 11.5 mph - N/A   Clear
7:56 PM 68.9 °F - 65.8 °F 90% 30.12 in 10.0 mi East 8.1 mph - N/A   Clear
8:36 PM 71.6 °F - 69.8 °F 94% 30.19 in 10.0 mi SE 11.5 mph - N/A   Scattered Clouds
8:56 PM 70.0 °F - 68.9 °F 96% 30.13 in 2.0 mi SE 9.2 mph - N/A   Mostly Cloudy
9:02 PM 69.8 °F - 69.8 °F 100% 30.19 in 1.5 mi SE 9.2 mph - N/A   Mostly Cloudy
9:04 PM 69.8 °F - 69.8 °F 100% 30.19 in 2.0 mi SE 9.2 mph - N/A   Scattered Clouds
9:13 PM 69.8 °F - 69.8 °F 100% 30.19 in 10.0 mi SE 8.1 mph - N/A   Partly Cloudy
9:27 PM 69.8 °F - 69.8 °F 100% 30.20 in 1.8 mi ESE 8.1 mph - N/A   Mostly Cloudy
9:29 PM 69.8 °F - 69.8 °F 100% 30.20 in 1.0 mi ESE 8.1 mph - N/A   Mostly Cloudy
9:31 PM 69.8 °F - 69.8 °F 100% 30.20 in 0.5 mi ESE 6.9 mph - N/A Fog Fog
9:33 PM 69.8 °F - 69.8 °F 100% 30.20 in 0.2 mi ESE 6.9 mph - N/A Fog Fog
9:44 PM 68.0 °F - 68.0 °F 100% 30.20 in 0.2 mi East 6.9 mph - N/A Fog Fog
9:56 PM 66.9 °F - 66.9 °F 100% 30.15 in 1.0 mi East 6.9 mph - N/A   Mist
9:58 PM 66.2 °F - 66.2 °F 100% 30.21 in 3.0 mi East 5.8 mph - N/A   Clear
10:56 PM 65.8 °F - 65.8 °F 100% 30.16 in 10.0 mi NNE 5.8 mph - N/A   Clear
11:56 PM 66.9 °F - 65.8 °F 96% 30.14 in 10.0 mi NNE 5.8 mph - N/A   Clear